Find Starlink 33594

NORAD ID: 62770 Int'l Des: 2025-015 Owner: SPXS Country: US Constellation: starlink operational
LEOCIRCULAR

現在のビュー

3D地球を読み込み中...

About Starlink 33594

Starlink 33594 (NORAD 62770) is a starlink constellation satellite (v2 mini) launched Jan 21, 2025 by SPXS of US. It operates in LEO, CIRCULAR orbit with a mass of 575.00 kg.

Starlink 33594について

説明を読み込み中...

次回通過

Passes for default location (London). Set your location on the main map for personalized predictions.

高度履歴

Loading altitude history...

軌道要素

1 62770U 25015N 26171.37475675 .00014911 00000-0 49100-3 0 9999
2 62770 53.1580 204.7197 0001167 89.8333 270.2802 15.31720143 80214
Epoch: Jun 20, 2026 • Age: 26 hours

現在のステータス

高度 488.1 km
速度 7.62 km/s
衛星直下点 -48.92°S, 1.66°E
打ち上げ日 Jan 21, 2025
運用期間 1.4 years
タイプ internet

技術仕様

分類 Payload
質量 575.00 kg
乾燥質量 530.00 kg
総質量 575.00 kg
長さ 0.30 m
直径 4.10 m
スパン 29.00 m
形状 Box + pan
製造者 SPXS
バスタイプ Starlink V2MO
フェーズステータス In Orbit
所有者/国 SPXS/US

Most Searched